PRAETORIAN SDA_602

Last updated on Sat Jun 27 2026 00:03:47 GMT+0000 (Coordinated Universal Time)

1 65565U 25203A 26176.91435568 .00000104 00000+0 82306-4 0 9999 2 65565 81.3029 2.6841 0006264 162.2891 197.8485 13.84278827 39903
UTC large
Height (km)
Speed (km/s)
/
Latitude / Longitude
Inclination (degrees)
Orbital Period (minutes)
Azimuth
Elevation
Range (km)
Doppler Factor

Next 0 passes for location: London (51.5072 / 0.1276)

No passes found over London.
PRAETORIAN SDA_602